NODES1

Last updated on May 20, 2016, 9:36 a.m. UTC

1 41477U 98067HX  16141.19440123  .00021535  00000-0  31568-3 0  9992
2 41477  51.6429 197.6571 0003337  19.5225  81.2377 15.55481458   484

Satellite is not in orbit.